This is the latest recevied weather packets stored in our database for station/object WX2NJ-13. If no packets are shown the sender has not sent any weather packets the latest 10 day(s).
| Time | Temp. | Humidity | Pressure | Rain* | Wind** | Luminosity | Snow |
|---|---|---|---|---|---|---|---|
| 1777501997 | 11.67° C | 81% | 1012.2 hPa | 0 mm | 0.45 m/s, 174° | - | - |
| 1777501698 | 11.67° C | 81% | 1012.1 hPa | 0 mm | 0 m/s | - | - |
| 1777501397 | 11.67° C | 80% | 1012.1 hPa | 0 mm | 0.89 m/s, 183° | - | - |
| 1777501098 | 11.67° C | 80% | 1012 hPa | 0 mm | 0.89 m/s, 73° | - | - |
| 1777500799 | 11.67° C | 80% | 1011.9 hPa | 0 mm | 0.45 m/s, 118° | - | - |
| 1777500498 | 11.67° C | 80% | 1012.1 hPa | 0 mm | 0.45 m/s, 127° | - | - |
| 1777500199 | 11.67° C | 80% | 1012 hPa | 0 mm | 1.34 m/s, 188° | - | - |
| 1777499901 | 11.67° C | 79% | 1012.1 hPa | 0 mm | 0.89 m/s, 135° | - | - |
| 1777499599 | 11.67° C | 79% | 1012 hPa | 0 mm | 1.34 m/s, 105° | - | - |
| 1777499301 | 11.67° C | 79% | 1012 hPa | 0 mm | 0 m/s | - | - |
| 1777499002 | 11.67° C | 78% | 1012.1 hPa | 0 mm | 0.89 m/s, 135° | - | - |
| 1777498701 | 12.22° C | 78% | 1012 hPa | 0 mm | 0.89 m/s, 121° | - | - |
| 1777498402 | 12.22° C | 78% | 1012 hPa | 0 mm | 0.45 m/s, 152° | - | - |
| 1777498104 | 11.67° C | 77% | 1012.1 hPa | 0 mm | 0.89 m/s, 118° | - | - |
| 1777497802 | 12.22° C | 77% | 1012.1 hPa | 0 mm | 0 m/s | - | - |
| 1777497504 | 12.22° C | 77% | 1012.3 hPa | 0 mm | 0 m/s | - | - |
| 1777497205 | 12.22° C | 76% | 1012.5 hPa | 0 mm | 1.34 m/s, 158° | - | - |
| 1777496904 | 12.22° C | 76% | 1012.5 hPa | 0 mm | 1.34 m/s, 214° | - | - |
| 1777496605 | 12.22° C | 76% | 1012.7 hPa | 0 mm | 0 m/s | - | - |
| 1777496307 | 12.22° C | 75% | 1012.6 hPa | 0 mm | 0 m/s | - | - |
| 1777496005 | 12.22° C | 75% | 1012.6 hPa | 0 mm | 0.89 m/s, 167° | - | - |
| 1777495707 | 12.22° C | 74% | 1012.6 hPa | 0 mm | 1.34 m/s, 91° | - | - |
| 1777495408 | 12.22° C | 74% | 1012.6 hPa | 0 mm | 0.89 m/s, 113° | - | - |
| 1777495107 | 12.22° C | 73% | 1012.8 hPa | 0 mm | 0.89 m/s, 293° | - | - |
| 1777494808 | 12.78° C | 73% | 1013 hPa | 0 mm | 0.89 m/s, 103° | - | - |
* Rain latest hour (hover to see other rain measurements)
** Current wind speed in m/s (hover to see current wind gust speed)